Vorticity
5 4 5 5 5 4 3 2 3 5 7 8 8 6 6 6 4 6 7 3 4 8 18 11 6 3 3 1 -0 1 3 4 3 3 3 5 3 4 5 9 10 9 5 4 7 6 7
3 5 4 4 5 4 3 2 3 5 7 6 5 6 7 6 6 10 10 7 2 5 22 8 4 2 2 2 1 0 2 2 4 2 3 1 3 3 3 5 6 8 11 6 4 4 5
8 4 6 6 5 4 2 2 3 5 7 5 7 7 6 8 8 6 4 8 5 2 6 17 4 2 1 1 0 -1 -1 2 3 2 1 3 2 2 3 3 3 5 7 9 9 7 6
6 7 4 4 4 4 3 3 4 5 6 5 6 5 8 8 6 3 3 8 10 5 3 6 17 6 2 2 2 2 2 2 3 2 3 2 1 2 3 2 3 5 6 9 5 7 7
6 7 7 7 5 3 3 4 5 5 7 5 5 8 9 5 4 5 8 11 10 7 3 4 6 12 10 3 2 1 1 1 1 2 3 3 3 1 2 4 4 3 4 8 6 8 6
9 5 6 6 6 7 6 6 6 6 8 4 4 7 5 5 7 9 8 6 5 5 5 7 8 3 10 9 7 4 3 3 3 4 3 4 3 2 3 5 4 4 6 5 9 6 4
16 15 9 4 6 8 7 6 7 8 7 3 0 5 5 7 10 9 8 8 10 12 9 14 12 11 7 5 8 12 11 11 10 9 8 8 6 5 6 6 5 6 8 5 11 9 6
5 7 18 15 10 7 4 2 2 2 2 2 5 12 5 10 8 8 8 8 9 8 11 13 19 21 20 16 11 9 7 8 9 9 9 10 9 12 11 8 7 9 9 9 9 9 6
4 4 4 11 18 16 9 9 11 10 10 13 11 8 11 9 7 7 7 8 11 10 13 10 11 12 17 19 18 16 15 16 15 13 13 12 10 9 10 12 9 10 10 7 6 3 2
3 3 3 3 7 15 18 14 11 10 9 8 9 9 8 7 8 7 8 9 7 7 7 10 10 5 8 7 11 13 13 11 11 11 12 10 10 10 9 9 8 10 6 3 3 5 6
2 3 2 4 3 4 7 16 10 9 9 8 7 7 7 6 6 8 9 9 8 4 5 8 7 6 6 4 5 4 5 7 6 8 10 7 10 9 8 6 6 4 6 6 4 3 3
3 -3 2 5 7 3 4 5 10 11 8 9 10 10 8 9 10 10 7 6 7 5 6 3 4 6 8 7 7 7 7 8 7 6 5 3 5 5 5 5 4 4 5 6 5 6 4
2 5 5 5 2 7 4 4 4 6 9 8 7 8 9 9 8 7 5 3 4 5 3 8 9 9 4 4 8 7 7 8 7 5 6 4 5 5 6 7 7 7 9 7 6 3 5
26 23 9 3 3 2 6 5 5 4 5 5 6 6 6 6 6 6 4 3 3 4 4 6 7 9 9 9 9 6 4 5 5 5 6 5 4 6 9 10 9 11 1 3 4 4 5
2 26 13 2 3 3 3 6 5 3 4 5 4 4 5 4 4 4 5 4 2 4 2 2 2 3 6 7 5 4 6 7 6 2 5 5 8 6 10 10 9 1 2 1 3 1 2
6 16 30 4 15 9 8 3 4 6 4 5 7 6 4 4 4 4 4 4 4 3 1 0 1 5 8 8 6 3 2 -2 -4 0 8 7 5 8 9 7 6 5 5 1 0 -1 1
1 1 24 -13 -1 4 9 7 0 5 3 5 4 6 6 7 7 7 6 6 6 5 4 4 4 4 4 8 4 1 -4 -7 5 9 3 2 8 9 7 7 8 6 4 0 2 6 5
8 6 1 4 9 12 14 19 4 9 7 4 3 7 3 2 2 4 6 6 5 5 5 6 6 7 4 2 -1 -0 2 9 10 1 3 5 4 6 5 7 5 2 2 2 5 10 13
7 7 10 7 16 11 20 6 20 3 16 13 4 5 5 8 3 5 5 2 2 4 4 2 4 4 5 6 5 6 10 6 -1 3 6 5 3 4 4 6 3 5 6 4 0 8 8
6 8 3 8 12 2 23 -10 15 9 11 1 12 8 8 7 4 9 6 6 1 4 3 -4 7 6 6 5 6 7 4 1 5 7 6 4 8 9 7 6 4 1 8 5 3 13 3
7 14 13 9 5 12 18 7 -19 11 14 18 10 7 6 4 0 4 6 10 3 2 1 -5 6 5 7 4 6 6 4 4 4 6 5 5 10 8 7 4 7 10 5 2 8 10 2
4 10 13 -4 1 7 10 5 17 31 -18 5 12 23 -4 -2 5 5 4 7 7 8 4 5 1 4 7 4 5 4 1 3 4 6 9 10 6 6 5 8 9 4 7 9 9 4 16
14 17 17 12 9 5 14 16 10 18 5 24 7 9 21 8 10 4 5 17 3 5 4 4 6 2 10 11 2 -1 2 -1 4 9 9 9 8 7 8 7 3 4 1 2 12 8 7
11 9 14 10 5 4 10 1 6 10 7 12 4 15 -5 10 -7 16 17 9 11 11 15 11 10 10 9 5 2 2 2 -1 6 11 5 4 10 10 10 7 1 7 5 8 5 5 12
20 24 17 7 13 2 14 -5 11 16 8 1 5 13 21 20 6 9 14 11 2 11 8 9 8 9 6 4 6 5 8 -1 10 4 8 3 10 9 2 4 9 7 11 16 3 4 9
18 19 23 24 12 9 10 9 1 4 8 2 13 8 8 6 0 1 4 -1 8 12 3 4 0 4 3 -1 5 6 9 2 9 15 12 5 6 5 6 8 11 12 12 10 8 15 11
10 13 14 17 20 12 8 8 5 3 15 6 1 7 8 16 -7 14 11 11 9 7 5 10 9 13 6 10 12 13 14 11 10 11 6 9 11 9 17 13 4 9 11 9 12 10 8
13 11 12 13 13 16 16 15 14 12 10 16 5 7 7 14 27 7 5 11 8 5 9 12 12 20 28 23 17 13 11 7 10 5 11 11 15 11 3 7 5 13 12 12 11 7 11
14 12 12 13 20 23 20 12 16 22 21 11 18 11 15 14 12 19 26 9 5 10 12 6 -4 2 -8 6 11 10 10 15 13 16 10 7 2 6 8 10 16 15 10 5 8 11 10
Height
5829 5830 5833 5835 5837 5838 5839 5840 5840 5840 5840 5840 5840 5840 5840 5839 5839 5839 5839 5839 5838 5838 5837 5839 5840 5842 5844 5846 5847 5848 5848 5849 5850 5850 5849 5848 5848 5847 5846 5845 5844 5843 5843 5842 5843 5842 5842
5827 5827 5829 5831 5833 5835 5836 5837 5838 5838 5837 5838 5838 5838 5838 5837 5837 5837 5837 5837 5837 5837 5837 5837 5839 5840 5842 5844 5845 5846 5847 5847 5848 5847 5847 5846 5846 5845 5844 5843 5843 5842 5841 5841 5840 5840 5840
5826 5827 5826 5827 5828 5830 5832 5834 5835 5835 5835 5835 5835 5835 5835 5834 5834 5834 5835 5835 5835 5835 5835 5835 5837 5838 5840 5842 5842 5842 5844 5844 5845 5845 5844 5844 5843 5843 5842 5841 5841 5840 5839 5839 5837 5837 5837
5823 5824 5824 5824 5826 5827 5828 5830 5831 5831 5832 5832 5833 5833 5832 5832 5831 5831 5832 5832 5832 5832 5832 5833 5834 5835 5836 5837 5838 5839 5840 5841 5841 5841 5841 5841 5840 5840 5839 5838 5837 5837 5837 5836 5834 5834 5834
5820 5820 5822 5822 5822 5823 5823 5825 5826 5828 5828 5829 5830 5829 5829 5829 5828 5828 5828 5828 5828 5828 5829 5829 5831 5831 5832 5833 5834 5834 5835 5836 5837 5836 5836 5837 5837 5836 5836 5835 5834 5833 5833 5833 5831 5831 5830
5816 5816 5816 5818 5818 5818 5819 5819 5821 5822 5823 5824 5825 5825 5825 5825 5825 5825 5824 5824 5824 5824 5824 5824 5825 5827 5827 5828 5828 5829 5830 5831 5832 5832 5832 5832 5832 5832 5831 5831 5830 5829 5827 5828 5828 5827 5825
5812 5812 5812 5812 5813 5814 5815 5815 5815 5817 5818 5818 5819 5820 5821 5821 5822 5821 5821 5820 5822 5821 5819 5819 5820 5820 5821 5822 5823 5824 5825 5826 5826 5827 5827 5828 5828 5827 5826 5825 5824 5824 5822 5820 5823 5822 5821
5806 5808 5807 5807 5807 5808 5810 5811 5810 5811 5812 5813 5813 5814 5816 5816 5816 5816 5816 5816 5816 5816 5815 5814 5815 5815 5815 5816 5818 5819 5820 5821 5821 5821 5822 5823 5822 5822 5821 5820 5818 5817 5815 5813 5814 5814 5814
5802 5802 5803 5802 5802 5802 5803 5805 5806 5805 5806 5807 5808 5809 5810 5811 5811 5812 5811 5811 5811 5811 5811 5811 5811 5811 5812 5812 5812 5813 5815 5815 5816 5816 5817 5817 5817 5816 5815 5814 5813 5812 5810 5808 5807 5807 5807
5796 5797 5796 5797 5798 5798 5798 5798 5800 5800 5800 5801 5802 5804 5805 5805 5807 5806 5807 5806 5807 5808 5808 5809 5808 5808 5809 5808 5809 5809 5810 5811 5811 5811 5812 5811 5811 5811 5810 5809 5808 5807 5805 5804 5801 5799 5799
5788 5789 5790 5790 5791 5793 5793 5793 5793 5795 5795 5796 5796 5798 5800 5800 5800 5801 5802 5802 5803 5804 5805 5806 5805 5805 5805 5806 5807 5807 5807 5806 5807 5807 5807 5807 5806 5805 5805 5803 5802 5802 5800 5797 5795 5793 5790
5780 5781 5781 5784 5784 5785 5788 5789 5789 5789 5790 5791 5792 5792 5793 5795 5795 5796 5797 5797 5799 5800 5800 5801 5800 5801 5801 5801 5802 5802 5802 5803 5802 5802 5802 5801 5801 5800 5799 5797 5796 5794 5793 5790 5787 5786 5782
5770 5772 5772 5774 5777 5778 5780 5782 5784 5785 5785 5785 5786 5787 5788 5789 5790 5791 5792 5792 5794 5793 5796 5796 5796 5796 5796 5796 5797 5797 5798 5798 5798 5797 5796 5796 5796 5795 5793 5791 5788 5786 5785 5781 5778 5776 5774
5759 5761 5763 5764 5766 5769 5771 5774 5776 5778 5779 5780 5780 5782 5782 5783 5785 5786 5786 5787 5788 5790 5789 5790 5791 5791 5792 5791 5792 5793 5793 5792 5791 5791 5790 5789 5790 5787 5785 5783 5781 5778 5776 5774 5767 5765 5761
5746 5750 5752 5755 5756 5759 5761 5763 5766 5769 5771 5773 5774 5775 5776 5777 5778 5779 5780 5780 5782 5783 5783 5784 5784 5785 5786 5786 5786 5786 5786 5786 5784 5784 5783 5780 5780 5780 5777 5775 5773 5770 5767 5764 5759 5755 5750
5731 5736 5740 5742 5745 5748 5751 5752 5755 5758 5760 5763 5765 5767 5768 5769 5770 5771 5772 5774 5775 5776 5776 5776 5777 5778 5779 5779 5779 5779 5779 5780 5778 5777 5774 5772 5769 5770 5767 5765 5762 5759 5756 5752 5747 5741 5736
5711 5719 5725 5728 5732 5735 5739 5740 5743 5746 5748 5752 5754 5757 5760 5761 5761 5762 5763 5766 5767 5767 5768 5769 5770 5770 5770 5772 5770 5770 5770 5772 5769 5767 5765 5763 5761 5760 5757 5753 5750 5747 5743 5739 5734 5729 5722
5692 5698 5707 5713 5716 5721 5724 5727 5730 5734 5736 5739 5741 5745 5749 5750 5752 5753 5755 5758 5760 5758 5759 5759 5761 5762 5762 5762 5762 5761 5763 5761 5759 5758 5756 5753 5749 5748 5746 5742 5738 5734 5731 5726 5721 5717 5709
5673 5680 5687 5694 5699 5703 5709 5712 5716 5720 5723 5726 5728 5732 5736 5738 5739 5743 5747 5748 5749 5749 5750 5750 5751 5752 5753 5753 5752 5751 5751 5751 5749 5747 5744 5742 5738 5736 5733 5731 5728 5723 5718 5713 5709 5702 5700
5656 5661 5668 5675 5680 5684 5691 5698 5702 5705 5709 5712 5716 5718 5722 5725 5728 5731 5734 5736 5737 5739 5740 5740 5741 5741 5743 5741 5741 5740 5742 5740 5738 5735 5733 5730 5727 5726 5723 5719 5715 5710 5704 5701 5694 5689 5684
5638 5646 5651 5657 5661 5667 5672 5676 5686 5690 5694 5698 5702 5706 5710 5713 5717 5719 5721 5723 5726 5727 5729 5730 5730 5732 5731 5730 5730 5730 5729 5727 5726 5723 5721 5717 5715 5712 5710 5706 5702 5697 5692 5689 5682 5677 5668
5622 5630 5636 5642 5646 5652 5658 5660 5666 5677 5680 5683 5689 5692 5697 5700 5703 5706 5706 5712 5715 5715 5716 5718 5719 5719 5719 5719 5719 5717 5717 5715 5713 5711 5707 5704 5702 5699 5696 5692 5688 5682 5679 5674 5669 5663 5655
5605 5614 5621 5625 5633 5638 5644 5649 5655 5659 5665 5668 5675 5680 5683 5687 5690 5692 5696 5699 5700 5701 5703 5704 5706 5707 5707 5708 5706 5705 5704 5703 5701 5699 5695 5692 5690 5687 5683 5680 5674 5670 5668 5663 5657 5650 5642
5588 5597 5607 5612 5617 5624 5630 5637 5646 5648 5651 5654 5661 5667 5669 5672 5678 5680 5683 5684 5686 5688 5689 5691 5692 5693 5694 5693 5693 5692 5690 5689 5688 5686 5682 5680 5676 5673 5669 5664 5661 5657 5652 5647 5641 5635 5627
5575 5583 5591 5598 5603 5610 5616 5624 5631 5636 5640 5642 5645 5651 5653 5659 5664 5668 5669 5671 5673 5675 5676 5677 5678 5679 5679 5679 5678 5676 5676 5674 5673 5670 5668 5664 5661 5656 5651 5650 5647 5642 5638 5633 5627 5620 5614
5563 5570 5577 5584 5591 5597 5604 5610 5616 5622 5627 5630 5631 5636 5641 5647 5652 5654 5657 5659 5660 5663 5665 5665 5664 5665 5665 5663 5662 5661 5660 5659 5657 5655 5654 5650 5644 5642 5637 5633 5629 5627 5624 5617 5609 5605 5598
5552 5558 5566 5572 5578 5586 5591 5596 5603 5608 5614 5616 5621 5622 5627 5632 5637 5641 5643 5645 5646 5648 5651 5650 5649 5649 5649 5647 5647 5646 5645 5644 5642 5641 5639 5634 5629 5626 5623 5617 5616 5614 5609 5602 5596 5593 5584
5542 5549 5553 5560 5567 5573 5580 5584 5588 5594 5599 5601 5605 5609 5613 5617 5621 5626 5629 5630 5631 5634 5637 5637 5636 5635 5634 5633 5632 5632 5629 5629 5627 5627 5623 5620 5615 5614 5608 5603 5601 5598 5592 5587 5582 5576 5570
5531 5539 5547 5553 5557 5563 5568 5572 5576 5581 5580 5585 5591 5594 5596 5600 5608 5608 5613 5614 5618 5620 5621 5619 5618 5619 5617 5617 5617 5616 5615 5613 5612 5611 5610 5606 5603 5599 5595 5590 5584 5580 5576 5572 5567 5561 5556